owner,sensor,date,latitude,longitude,air_pressure(mBar),qcFlag 
WAVCIS,ioos:station:WAVCIS:CSI16:1,2011-12-01T00:00:00Z,29.4012,-89.0355,1015.09,11111222 
WAVCIS,ioos:station:WAVCIS:CSI16:1,2011-12-01T01:00:00Z,29.4012,-89.0355,1015.49,11111222 
WAVCIS,ioos:station:WAVCIS:CSI16:1,2011-12-01T02:00:00Z,29.4012,-89.0355,1015.85,11111222 
WAVCIS,ioos:station:WAVCIS:CSI16:1,2011-12-01T03:00:00Z,29.4012,-89.0355,1016.05,11111222 
WAVCIS,ioos:station:WAVCIS:CSI16:1,2011-12-01T04:00:00Z,29.4012,-89.0355,1016.06,11111222 
WAVCIS,ioos:station:WAVCIS:CSI16:1,2011-12-01T05:00:00Z,29.4012,-89.0355,1016.04,11111222 
WAVCIS,ioos:station:WAVCIS:CSI16:1,2011-12-01T06:00:00Z,29.4012,-89.0355,1015.77,11111222 
WAVCIS,ioos:station:WAVCIS:CSI16:1,2011-12-01T07:00:00Z,29.4012,-89.0355,1015.78,11111222 
WAVCIS,ioos:station:WAVCIS:CSI16:1,2011-12-01T08:00:00Z,29.4012,-89.0355,1016.05,11111222 
WAVCIS,ioos:station:WAVCIS:CSI16:1,2011-12-01T09:00:00Z,29.4012,-89.0355,1016.02,11111222 
WAVCIS,ioos:station:WAVCIS:CSI16:1,2011-12-01T10:00:00Z,29.4012,-89.0355,1016.21,11111222 
WAVCIS,ioos:station:WAVCIS:CSI16:1,2011-12-01T11:00:00Z,29.4012,-89.0355,1016.57,11111222 
WAVCIS,ioos:station:WAVCIS:CSI16:1,2011-12-01T12:00:00Z,29.4012,-89.0355,1017.47,11111222 
WAVCIS,ioos:station:WAVCIS:CSI16:1,2011-12-01T13:00:00Z,29.4012,-89.0355,1018.31,11111222 
WAVCIS,ioos:station:WAVCIS:CSI16:1,2011-12-01T14:00:00Z,29.4012,-89.0355,1019.12,11111222 
WAVCIS,ioos:station:WAVCIS:CSI16:1,2011-12-01T15:00:00Z,29.4012,-89.0355,1020.29,11111222 
WAVCIS,ioos:station:WAVCIS:CSI16:1,2011-12-01T16:00:00Z,29.4012,-89.0355,1020.69,11111222 
WAVCIS,ioos:station:WAVCIS:CSI16:1,2011-12-01T17:00:00Z,29.4012,-89.0355,1020.34,11111222 
WAVCIS,ioos:station:WAVCIS:CSI16:1,2011-12-01T18:00:00Z,29.4012,-89.0355,1019.46,11111222 
WAVCIS,ioos:station:WAVCIS:CSI16:1,2011-12-01T19:00:00Z,29.4012,-89.0355,1019.31,11111222 
WAVCIS,ioos:station:WAVCIS:CSI16:1,2011-12-01T20:00:00Z,29.4012,-89.0355,1019.23,11111222 
WAVCIS,ioos:station:WAVCIS:CSI16:1,2011-12-01T21:00:00Z,29.4012,-89.0355,1019.28,11111222 
WAVCIS,ioos:station:WAVCIS:CSI16:1,2011-12-01T22:00:00Z,29.4012,-89.0355,1019.17,11111222 
WAVCIS,ioos:station:WAVCIS:CSI16:1,2011-12-01T23:00:00Z,29.4012,-89.0355,1019.54,11111222 
WAVCIS,ioos:station:WAVCIS:CSI16:1,2011-12-02T00:00:00Z,29.4012,-89.0355,1019.49,11111222 
WAVCIS,ioos:station:WAVCIS:CSI16:1,2011-12-02T01:00:00Z,29.4012,-89.0355,1020.1,11111222 
WAVCIS,ioos:station:WAVCIS:CSI16:1,2011-12-02T02:00:00Z,29.4012,-89.0355,1020.59,11111222 
WAVCIS,ioos:station:WAVCIS:CSI16:1,2011-12-02T03:00:00Z,29.4012,-89.0355,1020.19,11111222 
WAVCIS,ioos:station:WAVCIS:CSI16:1,2011-12-02T04:00:00Z,29.4012,-89.0355,1020.35,11111222 
WAVCIS,ioos:station:WAVCIS:CSI16:1,2011-12-02T05:00:00Z,29.4012,-89.0355,1020.56,11111222 
WAVCIS,ioos:station:WAVCIS:CSI16:1,2011-12-02T06:00:00Z,29.4012,-89.0355,1020.19,11111222 
WAVCIS,ioos:station:WAVCIS:CSI16:1,2011-12-02T07:00:00Z,29.4012,-89.0355,1020.5,11111222 
WAVCIS,ioos:station:WAVCIS:CSI16:1,2011-12-02T08:00:00Z,29.4012,-89.0355,1020.57,11111222 
WAVCIS,ioos:station:WAVCIS:CSI16:1,2011-12-02T09:00:00Z,29.4012,-89.0355,1020.68,11111222 
WAVCIS,ioos:station:WAVCIS:CSI16:1,2011-12-02T10:00:00Z,29.4012,-89.0355,1020.91,11111222 
WAVCIS,ioos:station:WAVCIS:CSI16:1,2011-12-02T11:00:00Z,29.4012,-89.0355,1021.06,11111222 
WAVCIS,ioos:station:WAVCIS:CSI16:1,2011-12-02T12:00:00Z,29.4012,-89.0355,1021.47,11111222 
WAVCIS,ioos:station:WAVCIS:CSI16:1,2011-12-02T13:00:00Z,29.4012,-89.0355,1021.99,11111222 
WAVCIS,ioos:station:WAVCIS:CSI16:1,2011-12-02T14:00:00Z,29.4012,-89.0355,1022.73,11111222 
WAVCIS,ioos:station:WAVCIS:CSI16:1,2011-12-02T15:00:00Z,29.4012,-89.0355,1023.42,11111222 
WAVCIS,ioos:station:WAVCIS:CSI16:1,2011-12-02T16:00:00Z,29.4012,-89.0355,1023.75,11111222 
WAVCIS,ioos:station:WAVCIS:CSI16:1,2011-12-02T17:00:00Z,29.4012,-89.0355,1023.33,11111222 
WAVCIS,ioos:station:WAVCIS:CSI16:1,2011-12-02T18:00:00Z,29.4012,-89.0355,1022.14,11111222 
WAVCIS,ioos:station:WAVCIS:CSI16:1,2011-12-02T19:00:00Z,29.4012,-89.0355,1021.54,11111222 
WAVCIS,ioos:station:WAVCIS:CSI16:1,2011-12-02T20:00:00Z,29.4012,-89.0355,1021.2,11111222 
WAVCIS,ioos:station:WAVCIS:CSI16:1,2011-12-02T21:00:00Z,29.4012,-89.0355,1020.96,11111222 
WAVCIS,ioos:station:WAVCIS:CSI16:1,2011-12-02T22:00:00Z,29.4012,-89.0355,1020.84,11111222 
WAVCIS,ioos:station:WAVCIS:CSI16:1,2011-12-02T23:00:00Z,29.4012,-89.0355,1020.97,11111222 
WAVCIS,ioos:station:WAVCIS:CSI16:1,2011-12-03T00:00:00Z,29.4012,-89.0355,1021.08,11111222 
WAVCIS,ioos:station:WAVCIS:CSI16:1,2011-12-03T01:00:00Z,29.4012,-89.0355,1021.66,11111222 
WAVCIS,ioos:station:WAVCIS:CSI16:1,2011-12-03T02:00:00Z,29.4012,-89.0355,1021.93,11111222 
WAVCIS,ioos:station:WAVCIS:CSI16:1,2011-12-03T03:00:00Z,29.4012,-89.0355,1022.18,11111222 
WAVCIS,ioos:station:WAVCIS:CSI16:1,2011-12-03T04:00:00Z,29.4012,-89.0355,1022.36,11111222 
WAVCIS,ioos:station:WAVCIS:CSI16:1,2011-12-03T05:00:00Z,29.4012,-89.0355,1022.39,11111222 
WAVCIS,ioos:station:WAVCIS:CSI16:1,2011-12-03T06:00:00Z,29.4012,-89.0355,1021.98,11111222 
WAVCIS,ioos:station:WAVCIS:CSI16:1,2011-12-03T07:00:00Z,29.4012,-89.0355,1021.23,11111222 
WAVCIS,ioos:station:WAVCIS:CSI16:1,2011-12-03T08:00:00Z,29.4012,-89.0355,1020.87,11111222 
WAVCIS,ioos:station:WAVCIS:CSI16:1,2011-12-03T09:00:00Z,29.4012,-89.0355,1020.49,11111222 
WAVCIS,ioos:station:WAVCIS:CSI16:1,2011-12-03T10:00:00Z,29.4012,-89.0355,1020.11,11111222 
WAVCIS,ioos:station:WAVCIS:CSI16:1,2011-12-03T11:00:00Z,29.4012,-89.0355,1020.26,11111222 
WAVCIS,ioos:station:WAVCIS:CSI16:1,2011-12-03T12:00:00Z,29.4012,-89.0355,1020.42,11111222 
WAVCIS,ioos:station:WAVCIS:CSI16:1,2011-12-03T13:00:00Z,29.4012,-89.0355,1020.73,11111222 
WAVCIS,ioos:station:WAVCIS:CSI16:1,2011-12-03T14:00:00Z,29.4012,-89.0355,1021.11,11111222 
WAVCIS,ioos:station:WAVCIS:CSI16:1,2011-12-03T15:00:00Z,29.4012,-89.0355,1021.49,11111222 
WAVCIS,ioos:station:WAVCIS:CSI16:1,2011-12-03T16:00:00Z,29.4012,-89.0355,1022.53,11111222 
WAVCIS,ioos:station:WAVCIS:CSI16:1,2011-12-03T17:00:00Z,29.4012,-89.0355,1022.33,11111222 
WAVCIS,ioos:station:WAVCIS:CSI16:1,2011-12-03T18:00:00Z,29.4012,-89.0355,1020.76,11111222 
WAVCIS,ioos:station:WAVCIS:CSI16:1,2011-12-03T19:00:00Z,29.4012,-89.0355,1019.68,11111222 
WAVCIS,ioos:station:WAVCIS:CSI16:1,2011-12-03T20:00:00Z,29.4012,-89.0355,1019.41,11111222 
WAVCIS,ioos:station:WAVCIS:CSI16:1,2011-12-03T21:00:00Z,29.4012,-89.0355,1018.86,11111222 
WAVCIS,ioos:station:WAVCIS:CSI16:1,2011-12-03T22:00:00Z,29.4012,-89.0355,1018.81,11111222 
WAVCIS,ioos:station:WAVCIS:CSI16:1,2011-12-03T23:00:00Z,29.4012,-89.0355,1018.87,11111222 
WAVCIS,ioos:station:WAVCIS:CSI16:1,2011-12-04T00:00:00Z,29.4012,-89.0355,1019.13,11111222 
WAVCIS,ioos:station:WAVCIS:CSI16:1,2011-12-04T01:00:00Z,29.4012,-89.0355,1019.31,11111222 
WAVCIS,ioos:station:WAVCIS:CSI16:1,2011-12-04T02:00:00Z,29.4012,-89.0355,1019.22,11111222 
WAVCIS,ioos:station:WAVCIS:CSI16:1,2011-12-04T03:00:00Z,29.4012,-89.0355,1019.07,11111222 
WAVCIS,ioos:station:WAVCIS:CSI16:1,2011-12-04T04:00:00Z,29.4012,-89.0355,1019.4,11111222 
WAVCIS,ioos:station:WAVCIS:CSI16:1,2011-12-04T05:00:00Z,29.4012,-89.0355,1019.2,11111222 
WAVCIS,ioos:station:WAVCIS:CSI16:1,2011-12-04T06:00:00Z,29.4012,-89.0355,1018.74,11111222 
WAVCIS,ioos:station:WAVCIS:CSI16:1,2011-12-04T07:00:00Z,29.4012,-89.0355,1017.93,11111222 
WAVCIS,ioos:station:WAVCIS:CSI16:1,2011-12-04T08:00:00Z,29.4012,-89.0355,1017.56,11111222 
WAVCIS,ioos:station:WAVCIS:CSI16:1,2011-12-04T09:00:00Z,29.4012,-89.0355,1017.57,11111222 
WAVCIS,ioos:station:WAVCIS:CSI16:1,2011-12-04T10:00:00Z,29.4012,-89.0355,1017.48,11111222 
WAVCIS,ioos:station:WAVCIS:CSI16:1,2011-12-04T11:00:00Z,29.4012,-89.0355,1017.14,11111222 
WAVCIS,ioos:station:WAVCIS:CSI16:1,2011-12-04T12:00:00Z,29.4012,-89.0355,1017.19,11111222 
WAVCIS,ioos:station:WAVCIS:CSI16:1,2011-12-04T13:00:00Z,29.4012,-89.0355,1017.2,11111222 
WAVCIS,ioos:station:WAVCIS:CSI16:1,2011-12-04T14:00:00Z,29.4012,-89.0355,1017.45,11111222 
WAVCIS,ioos:station:WAVCIS:CSI16:1,2011-12-04T15:00:00Z,29.4012,-89.0355,1017.47,11111222 
WAVCIS,ioos:station:WAVCIS:CSI16:1,2011-12-04T16:00:00Z,29.4012,-89.0355,1018.06,11111222 
WAVCIS,ioos:station:WAVCIS:CSI16:1,2011-12-04T17:00:00Z,29.4012,-89.0355,1017.63,11111222 
WAVCIS,ioos:station:WAVCIS:CSI16:1,2011-12-04T18:00:00Z,29.4012,-89.0355,1017.14,11111222 
WAVCIS,ioos:station:WAVCIS:CSI16:1,2011-12-04T19:00:00Z,29.4012,-89.0355,1015.51,11111222 
WAVCIS,ioos:station:WAVCIS:CSI16:1,2011-12-04T20:00:00Z,29.4012,-89.0355,1014.3,11111222 
WAVCIS,ioos:station:WAVCIS:CSI16:1,2011-12-04T21:00:00Z,29.4012,-89.0355,1013.88,11111222 
WAVCIS,ioos:station:WAVCIS:CSI16:1,2011-12-04T22:00:00Z,29.4012,-89.0355,1013.74,11111222 
WAVCIS,ioos:station:WAVCIS:CSI16:1,2011-12-04T23:00:00Z,29.4012,-89.0355,1013.57,11111222 
WAVCIS,ioos:station:WAVCIS:CSI16:1,2011-12-05T00:00:00Z,29.4012,-89.0355,1013.9,11111222 
WAVCIS,ioos:station:WAVCIS:CSI16:1,2011-12-05T01:00:00Z,29.4012,-89.0355,1014.3,11111222 
WAVCIS,ioos:station:WAVCIS:CSI16:1,2011-12-05T02:00:00Z,29.4012,-89.0355,1014.43,11111222 
WAVCIS,ioos:station:WAVCIS:CSI16:1,2011-12-05T03:00:00Z,29.4012,-89.0355,1014.4,11111222 
WAVCIS,ioos:station:WAVCIS:CSI16:1,2011-12-05T04:00:00Z,29.4012,-89.0355,1014.41,11111222 
WAVCIS,ioos:station:WAVCIS:CSI16:1,2011-12-05T05:00:00Z,29.4012,-89.0355,1013.86,11111222 
WAVCIS,ioos:station:WAVCIS:CSI16:1,2011-12-05T06:00:00Z,29.4012,-89.0355,1013.33,11111222 
WAVCIS,ioos:station:WAVCIS:CSI16:1,2011-12-05T07:00:00Z,29.4012,-89.0355,1013.13,11111222 
WAVCIS,ioos:station:WAVCIS:CSI16:1,2011-12-05T08:00:00Z,29.4012,-89.0355,1012.41,11111222 
WAVCIS,ioos:station:WAVCIS:CSI16:1,2011-12-05T09:00:00Z,29.4012,-89.0355,1011.96,11111222 
WAVCIS,ioos:station:WAVCIS:CSI16:1,2011-12-05T10:00:00Z,29.4012,-89.0355,1011.52,11111222 
WAVCIS,ioos:station:WAVCIS:CSI16:1,2011-12-05T11:00:00Z,29.4012,-89.0355,1011.36,11111222 
WAVCIS,ioos:station:WAVCIS:CSI16:1,2011-12-05T12:00:00Z,29.4012,-89.0355,1011.6,11111222 
WAVCIS,ioos:station:WAVCIS:CSI16:1,2011-12-05T13:00:00Z,29.4012,-89.0355,1011.68,11111222 
WAVCIS,ioos:station:WAVCIS:CSI16:1,2011-12-05T14:00:00Z,29.4012,-89.0355,1011.75,11111222 
WAVCIS,ioos:station:WAVCIS:CSI16:1,2011-12-05T15:00:00Z,29.4012,-89.0355,1012.36,11111222 
WAVCIS,ioos:station:WAVCIS:CSI16:1,2011-12-05T16:00:00Z,29.4012,-89.0355,1012.39,11111222 
WAVCIS,ioos:station:WAVCIS:CSI16:1,2011-12-05T17:00:00Z,29.4012,-89.0355,1012.32,11111222 
WAVCIS,ioos:station:WAVCIS:CSI16:1,2011-12-05T18:00:00Z,29.4012,-89.0355,1012.07,11111222 
WAVCIS,ioos:station:WAVCIS:CSI16:1,2011-12-05T19:00:00Z,29.4012,-89.0355,1011.35,11111222 
WAVCIS,ioos:station:WAVCIS:CSI16:1,2011-12-05T20:00:00Z,29.4012,-89.0355,1010.93,11111222 
WAVCIS,ioos:station:WAVCIS:CSI16:1,2011-12-05T21:00:00Z,29.4012,-89.0355,1010.88,11111222 
WAVCIS,ioos:station:WAVCIS:CSI16:1,2011-12-05T22:00:00Z,29.4012,-89.0355,1011.1,11111222 
WAVCIS,ioos:station:WAVCIS:CSI16:1,2011-12-05T23:00:00Z,29.4012,-89.0355,1011.21,11111222 
WAVCIS,ioos:station:WAVCIS:CSI16:1,2011-12-06T00:00:00Z,29.4012,-89.0355,1011.44,11111222 
WAVCIS,ioos:station:WAVCIS:CSI16:1,2011-12-06T01:00:00Z,29.4012,-89.0355,1011.74,11111222 
WAVCIS,ioos:station:WAVCIS:CSI16:1,2011-12-06T02:00:00Z,29.4012,-89.0355,1011.84,11111222 
WAVCIS,ioos:station:WAVCIS:CSI16:1,2011-12-06T03:00:00Z,29.4012,-89.0355,1011.88,11111222 
WAVCIS,ioos:station:WAVCIS:CSI16:1,2011-12-06T04:00:00Z,29.4012,-89.0355,1011.92,11111222 
WAVCIS,ioos:station:WAVCIS:CSI16:1,2011-12-06T05:00:00Z,29.4012,-89.0355,1011.99,11111222 
WAVCIS,ioos:station:WAVCIS:CSI16:1,2011-12-06T06:00:00Z,29.4012,-89.0355,1011.7,11111222 
WAVCIS,ioos:station:WAVCIS:CSI16:1,2011-12-06T07:00:00Z,29.4012,-89.0355,1011.39,11111222 
WAVCIS,ioos:station:WAVCIS:CSI16:1,2011-12-06T08:00:00Z,29.4012,-89.0355,1011.2,11111222 
WAVCIS,ioos:station:WAVCIS:CSI16:1,2011-12-06T09:00:00Z,29.4012,-89.0355,1011.07,11111222 
WAVCIS,ioos:station:WAVCIS:CSI16:1,2011-12-06T10:00:00Z,29.4012,-89.0355,1011.26,11111222 
WAVCIS,ioos:station:WAVCIS:CSI16:1,2011-12-06T11:00:00Z,29.4012,-89.0355,1011.65,11111222 
WAVCIS,ioos:station:WAVCIS:CSI16:1,2011-12-06T12:00:00Z,29.4012,-89.0355,1012.0,11111222 
WAVCIS,ioos:station:WAVCIS:CSI16:1,2011-12-06T13:00:00Z,29.4012,-89.0355,1012.41,11111222 
WAVCIS,ioos:station:WAVCIS:CSI16:1,2011-12-06T14:00:00Z,29.4012,-89.0355,1012.95,11111222 
WAVCIS,ioos:station:WAVCIS:CSI16:1,2011-12-06T15:00:00Z,29.4012,-89.0355,1013.61,11111222 
WAVCIS,ioos:station:WAVCIS:CSI16:1,2011-12-06T16:00:00Z,29.4012,-89.0355,1013.4,11111222 
WAVCIS,ioos:station:WAVCIS:CSI16:1,2011-12-06T17:00:00Z,29.4012,-89.0355,1012.76,11111222 
WAVCIS,ioos:station:WAVCIS:CSI16:1,2011-12-06T18:00:00Z,29.4012,-89.0355,1012.36,11111222 
WAVCIS,ioos:station:WAVCIS:CSI16:1,2011-12-06T19:00:00Z,29.4012,-89.0355,1011.26,11111222 
WAVCIS,ioos:station:WAVCIS:CSI16:1,2011-12-06T20:00:00Z,29.4012,-89.0355,1011.05,11111222 
WAVCIS,ioos:station:WAVCIS:CSI16:1,2011-12-06T21:00:00Z,29.4012,-89.0355,1011.27,11111222 
WAVCIS,ioos:station:WAVCIS:CSI16:1,2011-12-06T22:00:00Z,29.4012,-89.0355,1011.5,11111222 
WAVCIS,ioos:station:WAVCIS:CSI16:1,2011-12-06T23:00:00Z,29.4012,-89.0355,1011.54,11111222 
WAVCIS,ioos:station:WAVCIS:CSI16:1,2011-12-07T00:00:00Z,29.4012,-89.0355,1012.01,11111222 
WAVCIS,ioos:station:WAVCIS:CSI16:1,2011-12-07T01:00:00Z,29.4012,-89.0355,1012.17,11111222 
WAVCIS,ioos:station:WAVCIS:CSI16:1,2011-12-07T02:00:00Z,29.4012,-89.0355,1012.75,11111222 
WAVCIS,ioos:station:WAVCIS:CSI16:1,2011-12-07T03:00:00Z,29.4012,-89.0355,1012.84,11111222 
WAVCIS,ioos:station:WAVCIS:CSI16:1,2011-12-07T04:00:00Z,29.4012,-89.0355,1013.06,11111222 
WAVCIS,ioos:station:WAVCIS:CSI16:1,2011-12-07T05:00:00Z,29.4012,-89.0355,1012.7,11111222 
WAVCIS,ioos:station:WAVCIS:CSI16:1,2011-12-07T06:00:00Z,29.4012,-89.0355,1012.34,11111222 
WAVCIS,ioos:station:WAVCIS:CSI16:1,2011-12-07T07:00:00Z,29.4012,-89.0355,1012.12,11111222 
WAVCIS,ioos:station:WAVCIS:CSI16:1,2011-12-07T08:00:00Z,29.4012,-89.0355,1011.81,11111222 
WAVCIS,ioos:station:WAVCIS:CSI16:1,2011-12-07T09:00:00Z,29.4012,-89.0355,1012.17,11111222 
WAVCIS,ioos:station:WAVCIS:CSI16:1,2011-12-07T10:00:00Z,29.4012,-89.0355,1012.18,11111222 
WAVCIS,ioos:station:WAVCIS:CSI16:1,2011-12-07T11:00:00Z,29.4012,-89.0355,1012.51,11111222 
WAVCIS,ioos:station:WAVCIS:CSI16:1,2011-12-07T12:00:00Z,29.4012,-89.0355,1013.37,11111222 
WAVCIS,ioos:station:WAVCIS:CSI16:1,2011-12-07T13:00:00Z,29.4012,-89.0355,1014.38,11111222 
WAVCIS,ioos:station:WAVCIS:CSI16:1,2011-12-07T14:00:00Z,29.4012,-89.0355,1015.58,11111222 
WAVCIS,ioos:station:WAVCIS:CSI16:1,2011-12-07T15:00:00Z,29.4012,-89.0355,1016.64,11111222 
WAVCIS,ioos:station:WAVCIS:CSI16:1,2011-12-07T16:00:00Z,29.4012,-89.0355,1017.03,11111222 
WAVCIS,ioos:station:WAVCIS:CSI16:1,2011-12-07T17:00:00Z,29.4012,-89.0355,1016.99,11111222 
WAVCIS,ioos:station:WAVCIS:CSI16:1,2011-12-07T18:00:00Z,29.4012,-89.0355,1016.49,11111222 
WAVCIS,ioos:station:WAVCIS:CSI16:1,2011-12-07T19:00:00Z,29.4012,-89.0355,1015.97,11111222 
WAVCIS,ioos:station:WAVCIS:CSI16:1,2011-12-07T20:00:00Z,29.4012,-89.0355,1015.52,11111222 
WAVCIS,ioos:station:WAVCIS:CSI16:1,2011-12-07T21:00:00Z,29.4012,-89.0355,1015.58,11111222 
WAVCIS,ioos:station:WAVCIS:CSI16:1,2011-12-07T22:00:00Z,29.4012,-89.0355,1015.79,11111222 
WAVCIS,ioos:station:WAVCIS:CSI16:1,2011-12-07T23:00:00Z,29.4012,-89.0355,1016.21,11111222 
WAVCIS,ioos:station:WAVCIS:CSI16:1,2011-12-08T00:00:00Z,29.4012,-89.0355,1016.94,11111222 
WAVCIS,ioos:station:WAVCIS:CSI16:1,2011-12-08T01:00:00Z,29.4012,-89.0355,1017.68,11111222 
WAVCIS,ioos:station:WAVCIS:CSI16:1,2011-12-08T02:00:00Z,29.4012,-89.0355,1017.73,11111222 
WAVCIS,ioos:station:WAVCIS:CSI16:1,2011-12-08T03:00:00Z,29.4012,-89.0355,1018.22,11111222 
WAVCIS,ioos:station:WAVCIS:CSI16:1,2011-12-08T04:00:00Z,29.4012,-89.0355,1018.45,11111222 
WAVCIS,ioos:station:WAVCIS:CSI16:1,2011-12-08T05:00:00Z,29.4012,-89.0355,1018.56,11111222 
WAVCIS,ioos:station:WAVCIS:CSI16:1,2011-12-08T06:00:00Z,29.4012,-89.0355,1018.1,11111222 
WAVCIS,ioos:station:WAVCIS:CSI16:1,2011-12-08T07:00:00Z,29.4012,-89.0355,1018.24,11111222 
WAVCIS,ioos:station:WAVCIS:CSI16:1,2011-12-08T08:00:00Z,29.4012,-89.0355,1018.36,11111222 
WAVCIS,ioos:station:WAVCIS:CSI16:1,2011-12-08T09:00:00Z,29.4012,-89.0355,1018.09,11111222 
WAVCIS,ioos:station:WAVCIS:CSI16:1,2011-12-08T10:00:00Z,29.4012,-89.0355,1018.13,11111222 
WAVCIS,ioos:station:WAVCIS:CSI16:1,2011-12-08T11:00:00Z,29.4012,-89.0355,1018.28,11111222 
WAVCIS,ioos:station:WAVCIS:CSI16:1,2011-12-08T12:00:00Z,29.4012,-89.0355,1018.81,11111222 
WAVCIS,ioos:station:WAVCIS:CSI16:1,2011-12-08T13:00:00Z,29.4012,-89.0355,1018.83,11111222 
WAVCIS,ioos:station:WAVCIS:CSI16:1,2011-12-08T14:00:00Z,29.4012,-89.0355,1019.69,11111222 
WAVCIS,ioos:station:WAVCIS:CSI16:1,2011-12-08T15:00:00Z,29.4012,-89.0355,1020.33,11111222 
WAVCIS,ioos:station:WAVCIS:CSI16:1,2011-12-08T16:00:00Z,29.4012,-89.0355,1020.41,11111222 
WAVCIS,ioos:station:WAVCIS:CSI16:1,2011-12-08T17:00:00Z,29.4012,-89.0355,1019.68,11111222 
WAVCIS,ioos:station:WAVCIS:CSI16:1,2011-12-08T18:00:00Z,29.4012,-89.0355,1019.2,11111222 
WAVCIS,ioos:station:WAVCIS:CSI16:1,2011-12-08T19:00:00Z,29.4012,-89.0355,1018.31,11111222 
WAVCIS,ioos:station:WAVCIS:CSI16:1,2011-12-08T20:00:00Z,29.4012,-89.0355,1017.65,11111222 
WAVCIS,ioos:station:WAVCIS:CSI16:1,2011-12-08T21:00:00Z,29.4012,-89.0355,1017.39,11111222 
WAVCIS,ioos:station:WAVCIS:CSI16:1,2011-12-08T22:00:00Z,29.4012,-89.0355,1017.38,11111222 
WAVCIS,ioos:station:WAVCIS:CSI16:1,2011-12-08T23:00:00Z,29.4012,-89.0355,1016.98,11111222 
WAVCIS,ioos:station:WAVCIS:CSI16:1,2011-12-09T00:00:00Z,29.4012,-89.0355,1017.63,11111222 
WAVCIS,ioos:station:WAVCIS:CSI16:1,2011-12-09T01:00:00Z,29.4012,-89.0355,1017.22,11111222 
WAVCIS,ioos:station:WAVCIS:CSI16:1,2011-12-09T02:00:00Z,29.4012,-89.0355,1017.62,11111222 
WAVCIS,ioos:station:WAVCIS:CSI16:1,2011-12-09T03:00:00Z,29.4012,-89.0355,1017.54,11111222 
WAVCIS,ioos:station:WAVCIS:CSI16:1,2011-12-09T04:00:00Z,29.4012,-89.0355,1017.43,11111222 
WAVCIS,ioos:station:WAVCIS:CSI16:1,2011-12-09T05:00:00Z,29.4012,-89.0355,1017.34,11111222 
WAVCIS,ioos:station:WAVCIS:CSI16:1,2011-12-09T06:00:00Z,29.4012,-89.0355,1016.92,11111222 
WAVCIS,ioos:station:WAVCIS:CSI16:1,2011-12-09T07:00:00Z,29.4012,-89.0355,1016.9,11111222 
WAVCIS,ioos:station:WAVCIS:CSI16:1,2011-12-09T08:00:00Z,29.4012,-89.0355,1016.8,11111222 
WAVCIS,ioos:station:WAVCIS:CSI16:1,2011-12-09T09:00:00Z,29.4012,-89.0355,1016.32,11111222 
WAVCIS,ioos:station:WAVCIS:CSI16:1,2011-12-09T10:00:00Z,29.4012,-89.0355,1016.2,11111222 
WAVCIS,ioos:station:WAVCIS:CSI16:1,2011-12-09T11:00:00Z,29.4012,-89.0355,1016.15,11111222 
WAVCIS,ioos:station:WAVCIS:CSI16:1,2011-12-09T12:00:00Z,29.4012,-89.0355,1017.01,11111222 
WAVCIS,ioos:station:WAVCIS:CSI16:1,2011-12-09T13:00:00Z,29.4012,-89.0355,1017.55,11111222 
WAVCIS,ioos:station:WAVCIS:CSI16:1,2011-12-09T14:00:00Z,29.4012,-89.0355,1018.56,11111222 
WAVCIS,ioos:station:WAVCIS:CSI16:1,2011-12-09T16:00:00Z,29.4012,-89.0355,1019.72,11111222 
WAVCIS,ioos:station:WAVCIS:CSI16:1,2011-12-09T17:00:00Z,29.4012,-89.0355,1019.85,11111222 
WAVCIS,ioos:station:WAVCIS:CSI16:1,2011-12-09T18:00:00Z,29.4012,-89.0355,1019.42,11111222 
WAVCIS,ioos:station:WAVCIS:CSI16:1,2011-12-09T19:00:00Z,29.4012,-89.0355,1018.33,11111222 
WAVCIS,ioos:station:WAVCIS:CSI16:1,2011-12-09T20:00:00Z,29.4012,-89.0355,1017.85,11111222 
WAVCIS,ioos:station:WAVCIS:CSI16:1,2011-12-09T21:00:00Z,29.4012,-89.0355,1017.66,11111222 
WAVCIS,ioos:station:WAVCIS:CSI16:1,2011-12-09T22:00:00Z,29.4012,-89.0355,1017.57,11111222 
WAVCIS,ioos:station:WAVCIS:CSI16:1,2011-12-09T23:00:00Z,29.4012,-89.0355,1017.74,11111222 
WAVCIS,ioos:station:WAVCIS:CSI16:1,2011-12-10T00:00:00Z,29.4012,-89.0355,1018.1,11111222 
WAVCIS,ioos:station:WAVCIS:CSI16:1,2011-12-10T01:00:00Z,29.4012,-89.0355,1018.03,11111222 
WAVCIS,ioos:station:WAVCIS:CSI16:1,2011-12-10T02:00:00Z,29.4012,-89.0355,1018.99,11111222 
WAVCIS,ioos:station:WAVCIS:CSI16:1,2011-12-10T03:00:00Z,29.4012,-89.0355,1019.8,11111222 
WAVCIS,ioos:station:WAVCIS:CSI16:1,2011-12-10T04:00:00Z,29.4012,-89.0355,1019.76,11111222 
WAVCIS,ioos:station:WAVCIS:CSI16:1,2011-12-10T05:00:00Z,29.4012,-89.0355,1019.88,11111222 
WAVCIS,ioos:station:WAVCIS:CSI16:1,2011-12-10T06:00:00Z,29.4012,-89.0355,1019.91,11111222 
WAVCIS,ioos:station:WAVCIS:CSI16:1,2011-12-10T07:00:00Z,29.4012,-89.0355,1019.79,11111222 
WAVCIS,ioos:station:WAVCIS:CSI16:1,2011-12-10T08:00:00Z,29.4012,-89.0355,1019.84,11111222 
WAVCIS,ioos:station:WAVCIS:CSI16:1,2011-12-10T09:00:00Z,29.4012,-89.0355,1019.77,11111222 
WAVCIS,ioos:station:WAVCIS:CSI16:1,2011-12-10T10:00:00Z,29.4012,-89.0355,1019.65,11111222 
WAVCIS,ioos:station:WAVCIS:CSI16:1,2011-12-10T11:00:00Z,29.4012,-89.0355,1019.4,11111222 
WAVCIS,ioos:station:WAVCIS:CSI16:1,2011-12-10T12:00:00Z,29.4012,-89.0355,1020.11,11111222 
WAVCIS,ioos:station:WAVCIS:CSI16:1,2011-12-10T13:00:00Z,29.4012,-89.0355,1020.46,11111222 
WAVCIS,ioos:station:WAVCIS:CSI16:1,2011-12-10T14:00:00Z,29.4012,-89.0355,1021.03,11111222 
WAVCIS,ioos:station:WAVCIS:CSI16:1,2011-12-10T15:00:00Z,29.4012,-89.0355,1022.01,11111222 
WAVCIS,ioos:station:WAVCIS:CSI16:1,2011-12-10T16:00:00Z,29.4012,-89.0355,1022.53,11111222 
WAVCIS,ioos:station:WAVCIS:CSI16:1,2011-12-10T17:00:00Z,29.4012,-89.0355,1022.15,11111222 
WAVCIS,ioos:station:WAVCIS:CSI16:1,2011-12-10T18:00:00Z,29.4012,-89.0355,1021.28,11111222 
WAVCIS,ioos:station:WAVCIS:CSI16:1,2011-12-10T19:00:00Z,29.4012,-89.0355,1021.09,11111222 
WAVCIS,ioos:station:WAVCIS:CSI16:1,2011-12-10T20:00:00Z,29.4012,-89.0355,1020.27,11111222 
WAVCIS,ioos:station:WAVCIS:CSI16:1,2011-12-10T21:00:00Z,29.4012,-89.0355,1020.04,11111222 
WAVCIS,ioos:station:WAVCIS:CSI16:1,2011-12-10T22:00:00Z,29.4012,-89.0355,1019.94,11111222 
WAVCIS,ioos:station:WAVCIS:CSI16:1,2011-12-10T23:00:00Z,29.4012,-89.0355,1019.64,11111222 
WAVCIS,ioos:station:WAVCIS:CSI16:1,2011-12-11T00:00:00Z,29.4012,-89.0355,1020.12,11111222 
WAVCIS,ioos:station:WAVCIS:CSI16:1,2011-12-11T01:00:00Z,29.4012,-89.0355,1020.56,11111222 
WAVCIS,ioos:station:WAVCIS:CSI16:1,2011-12-11T02:00:00Z,29.4012,-89.0355,1020.66,11111222 
WAVCIS,ioos:station:WAVCIS:CSI16:1,2011-12-11T03:00:00Z,29.4012,-89.0355,1020.79,11111222 
WAVCIS,ioos:station:WAVCIS:CSI16:1,2011-12-11T04:00:00Z,29.4012,-89.0355,1020.93,11111222 
WAVCIS,ioos:station:WAVCIS:CSI16:1,2011-12-11T05:00:00Z,29.4012,-89.0355,1020.61,11111222 
WAVCIS,ioos:station:WAVCIS:CSI16:1,2011-12-11T06:00:00Z,29.4012,-89.0355,1020.08,11111222 
WAVCIS,ioos:station:WAVCIS:CSI16:1,2011-12-11T07:00:00Z,29.4012,-89.0355,1020.52,11111222 
WAVCIS,ioos:station:WAVCIS:CSI16:1,2011-12-11T08:00:00Z,29.4012,-89.0355,1020.33,11111222 
WAVCIS,ioos:station:WAVCIS:CSI16:1,2011-12-11T09:00:00Z,29.4012,-89.0355,1019.89,11111222 
WAVCIS,ioos:station:WAVCIS:CSI16:1,2011-12-11T10:00:00Z,29.4012,-89.0355,1019.78,11111222 
WAVCIS,ioos:station:WAVCIS:CSI16:1,2011-12-11T11:00:00Z,29.4012,-89.0355,1019.87,11111222 
WAVCIS,ioos:station:WAVCIS:CSI16:1,2011-12-11T12:00:00Z,29.4012,-89.0355,1019.94,11111222 
WAVCIS,ioos:station:WAVCIS:CSI16:1,2011-12-11T13:00:00Z,29.4012,-89.0355,1020.52,11111222 
WAVCIS,ioos:station:WAVCIS:CSI16:1,2011-12-11T14:00:00Z,29.4012,-89.0355,1021.03,11111222 
WAVCIS,ioos:station:WAVCIS:CSI16:1,2011-12-11T15:00:00Z,29.4012,-89.0355,1019.75,11111222 
WAVCIS,ioos:station:WAVCIS:CSI16:1,2011-12-11T16:00:00Z,29.4012,-89.0355,1020.98,11111222 
WAVCIS,ioos:station:WAVCIS:CSI16:1,2011-12-11T17:00:00Z,29.4012,-89.0355,1021.29,11111222 
WAVCIS,ioos:station:WAVCIS:CSI16:1,2011-12-11T18:00:00Z,29.4012,-89.0355,1018.66,11111222 
WAVCIS,ioos:station:WAVCIS:CSI16:1,2011-12-11T19:00:00Z,29.4012,-89.0355,1018.72,11111222 
WAVCIS,ioos:station:WAVCIS:CSI16:1,2011-12-11T20:00:00Z,29.4012,-89.0355,1018.07,11111222 
WAVCIS,ioos:station:WAVCIS:CSI16:1,2011-12-11T21:00:00Z,29.4012,-89.0355,1018.12,11111222 
WAVCIS,ioos:station:WAVCIS:CSI16:1,2011-12-11T22:00:00Z,29.4012,-89.0355,1018.19,11111222 
WAVCIS,ioos:station:WAVCIS:CSI16:1,2011-12-11T23:00:00Z,29.4012,-89.0355,1018.37,11111222 